Wind_Speed
10 10 10 10 11 11 11 12 13 14 15 15 16 17 18 19 20 20 19 19 20 20 20 20 20 20 20 21 21 22 23 23 23 23 24 25 25 26 27 28 30 32 33 34 35 34 35 35 35 35 34 34 35 34 33 34 34 33 33 33 33 33 31 23 14 10 14 18 18 17 16 17 20 22 22 23 24 23 23 24 25 25 26 26 26
9 10 10 10 11 11 11 12 13 13 14 15 16 17 18 19 20 21 21 22 22 21 21 21 22 22 21 20 21 21 22 22 23 23 24 25 25 25 26 27 29 31 31 32 34 33 34 35 35 35 34 35 35 33 32 32 32 33 32 31 30 30 29 27 21 14 13 17 20 19 19 20 21 22 22 24 24 24 25 25 26 26 26 26 26
8 9 9 10 11 11 12 12 13 13 14 14 15 16 17 18 19 20 21 22 23 23 22 22 21 22 21 20 20 21 22 22 23 23 24 25 25 25 25 26 28 29 30 31 31 32 33 34 34 34 33 34 35 34 33 33 33 33 34 35 34 34 32 32 28 20 16 17 20 21 21 21 22 22 23 24 24 24 25 26 26 26 25 26 26
7 8 8 9 10 11 12 13 13 14 15 15 15 16 16 17 18 19 20 21 22 23 23 23 22 22 22 22 22 21 22 22 23 23 24 25 25 26 26 26 28 29 30 31 31 31 32 33 33 31 31 33 34 34 32 33 33 33 34 35 35 35 34 33 33 29 23 19 20 22 22 21 22 22 23 23 23 24 25 25 25 25 25 25 25
6 7 8 8 9 10 11 13 14 14 15 16 16 17 17 17 17 18 19 20 21 22 23 23 24 24 23 23 23 23 23 22 23 23 24 24 25 26 27 27 28 29 29 31 31 31 32 33 32 31 31 32 34 34 33 32 32 32 34 35 34 34 34 34 35 34 28 21 19 19 19 19 21 21 22 24 24 24 24 25 25 25 24 24 23
6 7 7 8 9 10 11 12 13 14 15 16 16 17 18 18 18 18 19 19 20 21 22 23 24 24 24 23 23 24 24 23 23 24 24 24 25 26 27 27 28 29 29 30 31 32 33 33 33 32 31 34 36 36 35 34 33 32 31 31 31 31 32 33 34 34 31 26 22 19 18 20 21 20 21 24 25 25 25 24 24 24 23 22 22
5 6 6 7 8 9 10 11 12 13 14 14 15 16 17 18 19 19 20 20 20 21 21 22 23 24 24 24 22 22 23 24 23 23 23 23 24 26 26 27 27 28 29 30 30 31 33 34 34 33 33 35 35 34 33 34 34 34 33 30 28 28 28 29 30 31 29 25 22 20 19 20 20 19 21 24 23 24 24 22 22 24 22 20 20
3 5 6 6 7 8 9 10 11 12 13 13 14 15 16 17 19 20 20 21 21 21 21 22 22 23 24 24 23 21 22 23 22 22 23 24 25 27 27 27 28 28 29 30 29 30 31 33 34 34 35 35 35 33 31 30 30 31 31 30 29 28 27 26 26 25 25 23 21 20 19 18 19 18 18 20 20 22 24 24 23 23 22 20 19
1 3 5 6 7 8 9 10 10 11 12 13 13 14 15 17 18 19 20 21 22 22 21 21 22 23 24 24 24 22 21 21 21 21 23 26 27 28 28 29 29 29 29 29 30 30 30 31 33 33 34 35 36 35 34 32 31 29 28 27 29 29 28 27 26 24 22 20 18 18 16 15 18 19 19 22 25 25 26 25 23 21 20 19 19
1 3 4 5 7 9 10 11 11 12 12 13 14 14 15 16 17 18 20 21 22 22 22 22 22 23 24 24 25 24 22 22 21 22 24 25 27 28 29 29 29 29 29 29 29 29 29 30 32 34 35 35 36 36 35 35 35 35 32 31 31 32 30 28 27 26 23 19 18 18 14 13 20 24 25 28 29 26 24 23 22 19 16 14 16
2 3 4 5 7 8 10 11 12 13 14 15 15 16 16 17 18 19 19 20 21 22 22 22 23 23 22 23 24 24 24 24 24 25 25 25 26 27 29 30 30 30 29 29 29 29 29 29 30 32 34 36 37 37 37 36 37 37 37 37 36 37 35 32 29 28 25 21 20 21 18 16 22 28 28 27 27 26 24 24 22 19 15 11 10
2 2 4 5 6 8 10 11 12 13 14 16 17 17 18 19 19 20 20 20 21 22 22 22 22 22 22 23 24 25 26 25 24 25 26 26 26 27 28 29 30 30 29 29 29 29 28 29 30 30 32 33 35 36 37 37 37 37 37 39 39 40 40 37 33 30 29 26 22 22 23 22 24 27 28 28 27 26 25 24 23 22 19 16 13
2 2 3 5 6 8 9 11 12 13 14 15 17 18 19 20 20 21 21 21 21 22 22 22 22 22 22 24 26 27 27 26 24 25 27 28 27 27 29 30 30 30 30 29 29 29 28 29 29 30 30 31 33 35 35 36 36 36 37 38 39 40 39 40 38 36 35 33 28 26 29 29 28 28 31 31 29 26 24 24 24 24 23 22 23
3 1 3 4 6 8 9 10 12 13 14 15 16 17 18 19 20 21 21 21 21 21 22 22 22 22 23 24 26 28 28 26 24 25 27 28 27 27 29 30 30 30 31 30 29 29 28 28 29 30 30 30 31 33 34 34 34 34 36 37 39 40 39 40 41 40 38 36 32 31 33 34 33 33 33 32 30 29 28 28 28 28 27 25 24
3 0 2 4 6 7 8 10 11 13 14 15 16 17 18 19 20 20 21 21 20 19 20 20 21 23 23 24 26 28 27 25 24 26 27 27 27 27 28 29 29 31 31 30 30 29 29 28 29 30 30 30 30 31 33 33 33 32 34 36 37 38 39 40 40 39 38 37 36 35 35 36 36 35 33 32 32 31 31 31 29 28 26 21 20
3 1 2 4 6 7 8 10 11 13 14 15 16 17 18 18 19 20 21 21 20 20 20 19 20 22 23 23 25 27 27 25 25 26 26 26 27 28 29 29 29 30 31 31 30 30 29 28 28 29 29 29 29 29 30 32 32 32 32 33 34 36 38 40 40 40 40 39 40 40 39 38 37 35 35 33 31 30 27 25 23 22 20 16 16
4 2 1 3 5 6 8 9 11 12 14 15 16 17 17 18 18 18 20 22 22 22 21 21 20 20 22 22 22 24 26 26 25 26 26 26 27 29 29 29 30 30 30 31 30 31 30 29 28 28 28 29 28 28 28 30 31 32 31 31 31 33 36 37 37 39 40 41 42 42 41 40 38 36 35 33 30 28 25 22 21 22 19 13 11
5 3 2 3 4 5 6 8 10 12 13 14 16 17 17 17 17 17 18 20 22 21 21 22 22 20 20 20 21 22 25 25 25 26 25 26 27 29 29 29 29 29 29 30 30 30 30 30 28 28 28 28 27 27 27 28 30 32 31 29 28 30 32 32 32 35 38 40 41 41 40 39 38 36 34 32 29 28 27 26 26 26 22 15 11
4 3 3 2 3 4 5 7 9 11 12 14 15 16 16 16 16 16 17 18 20 20 19 20 22 21 20 20 21 21 23 24 24 25 25 26 27 28 29 28 28 29 29 30 30 29 29 29 29 29 29 28 27 26 27 28 30 32 31 29 28 29 29 28 29 33 36 38 38 38 36 35 35 33 32 30 28 27 27 28 29 28 25 21 17
4 3 3 2 2 3 4 6 8 10 11 13 14 14 14 15 16 17 18 18 18 18 17 17 20 22 21 20 20 20 20 22 23 24 25 26 27 28 29 27 28 30 31 31 30 29 29 28 28 28 29 29 28 26 26 28 30 32 32 30 29 29 27 27 30 34 36 37 37 37 36 34 33 31 30 29 28 27 28 29 30 30 28 26 24
4 4 3 2 3 4 5 6 7 8 10 12 13 13 13 14 15 17 18 18 17 17 17 17 19 21 21 20 18 18 19 21 23 24 25 26 27 28 28 27 27 30 32 32 30 29 28 27 27 28 28 29 29 27 27 28 30 32 34 35 35 32 29 29 32 35 37 37 35 34 35 34 33 32 31 31 31 30 30 30 31 31 31 30 28
5 4 4 4 4 5 6 6 7 8 9 11 12 13 14 14 15 16 17 18 18 17 17 16 17 20 21 18 17 18 19 21 22 24 25 26 27 28 28 28 28 30 32 32 31 30 29 29 29 28 27 28 29 30 29 29 30 33 35 36 37 36 33 32 32 34 36 35 31 31 32 33 34 34 34 34 34 33 31 31 31 31 31 34 34
6 6 5 5 5 6 6 7 8 9 10 11 12 14 15 15 16 16 17 18 17 15 14 15 16 18 19 19 18 19 21 22 22 24 26 27 27 27 27 27 29 30 32 33 33 33 33 32 31 30 28 28 29 30 31 31 32 34 35 35 37 38 37 33 32 34 34 32 29 29 31 32 34 34 35 36 36 35 32 30 32 32 30 33 35
7 7 6 6 7 7 7 8 9 10 11 12 13 14 15 16 16 16 16 17 15 13 13 14 15 16 18 20 20 21 22 23 24 25 26 27 27 27 27 28 30 30 32 33 34 35 36 35 33 31 29 29 30 30 31 32 33 34 35 35 36 38 37 33 32 33 32 29 28 28 30 32 34 34 37 38 36 34 31 29 30 32 30 31 33
8 8 8 8 8 8 8 9 10 11 12 13 14 15 16 17 17 16 16 16 14 12 12 13 14 14 16 18 21 23 24 24 25 26 27 27 28 28 29 30 31 31 32 34 35 36 37 37 35 32 31 30 30 30 31 32 33 33 34 35 36 37 35 33 32 31 29 28 27 28 29 32 35 36 37 38 35 32 30 29 30 31 30 30 32
9 9 10 10 10 10 10 11 12 13 13 14 14 14 15 16 17 16 16 15 14 12 12 12 13 14 15 17 21 24 25 24 25 27 29 30 31 32 33 35 34 33 33 34 35 36 37 36 35 33 32 31 31 31 31 31 32 33 34 34 36 37 35 31 30 29 28 27 27 28 30 32 34 35 34 34 34 33 32 32 31 31 31 30 30
10 11 11 11 11 11 12 13 13 15 15 15 15 15 14 15 15 16 16 16 15 13 12 12 13 14 16 19 22 24 25 25 25 27 30 33 35 36 37 38 37 36 33 33 34 36 37 37 36 34 33 31 30 30 30 30 31 33 33 32 34 36 36 33 32 31 30 30 29 29 30 31 31 31 32 33 34 34 34 34 33 31 31 30 28
12 12 11 11 11 12 13 13 14 16 16 16 16 16 15 15 15 15 14 14 15 15 14 14 14 16 18 21 22 24 25 25 25 28 32 35 36 38 39 38 37 36 35 35 36 37 37 37 35 32 29 27 26 27 27 26 28 30 31 30 31 33 35 33 33 33 32 31 30 29 28 29 30 30 32 33 34 34 35 35 33 31 31 30 25
12 12 12 12 12 12 13 13 14 15 16 17 16 15 14 13 14 14 12 10 11 14 15 16 17 18 20 20 20 22 25 27 28 31 34 35 35 37 37 36 36 37 37 37 37 37 35 33 29 26 24 22 22 22 22 23 24 26 28 28 29 30 31 30 30 31 31 30 29 28 28 29 29 30 31 31 32 35 36 34 32 32 31 29 25
13 13 13 13 13 13 14 14 13 14 15 17 18 17 14 12 12 11 10 9 9 11 14 16 17 18 19 21 20 20 24 29 32 33 34 35 36 35 35 35 35 36 36 36 35 33 30 27 24 22 21 20 18 19 20 21 21 23 25 26 27 28 30 30 29 30 30 29 29 29 29 29 28 28 30 30 29 32 35 34 32 32 31 28 23
15 15 15 15 15 14 14 14 14 14 15 17 18 18 18 16 12 8 7 9 11 12 13 13 12 14 18 22 24 23 23 26 30 33 34 36 36 35 34 34 34 33 33 33 31 28 25 23 22 20 20 19 18 18 19 20 21 22 23 23 25 27 28 30 30 29 29 29 29 30 30 30 29 29 30 30 28 29 31 32 31 32 32 29 25
16 16 16 16 15 14 14 14 14 14 15 17 17 18 19 19 16 11 9 9 10 11 10 10 11 15 18 22 24 24 24 26 31 34 35 35 35 34 34 34 32 30 29 28 26 24 22 21 20 19 19 18 18 19 19 20 21 22 21 21 22 25 27 30 31 31 29 28 28 29 30 31 30 30 31 30 28 27 29 30 30 30 30 28 26
15 16 16 16 15 14 13 13 12 13 14 16 17 18 18 18 19 19 18 15 10 7 7 8 12 18 21 21 20 21 24 27 31 33 34 33 33 34 35 32 29 26 24 23 22 21 21 20 20 20 20 19 19 20 19 20 21 22 22 22 22 25 28 30 30 31 31 30 29 29 31 31 31 30 30 30 29 29 29 29 29 28 27 25 23
14 14 14 14 14 13 13 12 12 13 13 14 16 18 18 17 18 20 21 20 16 13 13 13 15 20 23 21 18 19 23 27 30 31 31 31 31 33 33 28 25 25 23 21 20 21 22 21 21 20 20 20 20 20 20 20 21 22 23 23 25 27 28 29 29 29 30 31 31 30 31 31 31 30 29 28 28 28 28 28 28 27 26 24 23
14 14 13 13 13 13 13 13 13 12 13 13 15 17 17 16 16 16 17 18 19 20 21 21 22 24 22 19 19 22 25 28 30 29 29 29 31 31 28 25 24 25 25 22 21 22 23 23 23 23 22 21 20 20 20 20 21 21 22 24 25 26 26 27 28 29 29 29 30 30 31 31 32 32 31 29 28 27 26 28 28 28 27 25 24
15 14 14 14 14 13 13 13 13 12 12 13 14 14 14 14 15 15 15 16 17 20 23 26 27 26 21 18 21 25 27 29 30 28 27 28 28 26 24 22 22 22 22 22 23 23 23 25 26 26 25 23 21 21 21 21 21 21 22 24 25 24 24 25 27 28 29 30 30 30 31 31 32 32 31 30 30 29 28 28 29 28 28 27 25
15 14 14 14 14 13 13 13 12 12 12 12 13 14 14 14 13 14 15 16 17 19 22 26 28 27 25 25 27 28 30 31 30 27 27 29 27 24 22 21 21 21 22 23 24 24 25 26 26 27 27 27 25 23 22 22 22 22 22 22 24 24 24 25 27 27 28 29 30 31 31 31 31 33 31 29 29 29 29 29 28 28 28 28 26
14 13 12 13 13 13 13 13 13 12 11 11 13 14 13 12 12 13 14 16 16 18 20 22 24 25 28 31 31 31 32 33 30 27 28 29 28 26 24 23 22 22 22 24 25 25 26 27 28 28 28 28 28 26 25 23 22 22 21 21 22 24 24 25 26 27 27 27 27 29 31 31 31 32 32 29 28 29 29 29 29 28 27 27 26
14 12 11 12 12 13 13 13 13 13 12 12 13 13 12 12 12 13 14 15 16 17 18 19 20 22 26 29 31 33 33 32 28 27 27 27 26 26 25 24 24 24 24 25 27 27 27 29 30 30 30 30 29 28 27 25 24 23 22 21 20 22 23 23 23 24 25 26 25 26 29 29 29 31 32 31 30 30 30 30 30 30 28 27 27
14 13 13 13 13 14 13 13 13 13 12 12 13 13 12 12 12 13 15 15 15 15 16 17 20 22 23 25 28 30 30 27 25 24 25 25 25 25 24 24 25 26 26 27 29 29 30 31 32 32 32 31 29 28 28 27 26 24 22 21 20 21 24 24 24 25 26 27 26 26 27 28 29 30 31 31 31 32 32 31 32 32 31 30 29
13 13 13 14 14 13 13 12 12 12 12 12 13 13 12 13 13 14 15 15 14 15 16 17 20 22 22 23 26 27 25 23 23 23 23 23 24 24 23 24 26 27 27 29 30 31 32 34 35 36 34 31 29 29 29 29 28 25 23 21 20 21 23 24 25 26 27 28 28 28 28 29 30 30 30 31 31 32 32 32 31 32 32 32 31
13 13 14 14 13 13 12 13 13 13 14 14 14 14 13 14 15 15 15 14 14 15 16 18 21 22 23 23 25 25 23 21 21 22 23 23 24 24 24 26 29 31 31 30 31 33 34 36 37 37 34 31 30 29 29 29 29 28 24 22 20 20 22 23 25 26 27 28 28 29 29 30 31 32 32 33 32 31 30 31 31 31 31 31 31
13 13 13 13 12 12 12 13 14 15 15 15 15 15 14 15 16 16 15 15 15 15 16 19 21 22 23 25 25 24 22 21 21 22 22 23 24 24 26 29 34 37 35 32 33 36 36 35 35 34 33 32 32 30 29 28 29 29 27 24 21 20 21 22 24 25 26 26 27 28 29 30 31 32 33 33 33 32 31 31 31 31 30 30 30
13 13 13 13 13 13 14 14 16 16 16 16 16 16 16 16 17 17 16 16 16 16 18 20 21 22 24 25 25 24 23 22 23 23 23 23 24 26 28 31 36 38 37 34 35 37 36 34 34 35 35 35 34 31 30 28 27 28 28 25 21 19 20 21 23 24 25 26 26 27 28 28 29 31 31 32 32 32 31 31 31 30 29 29 29
13 13 14 14 15 15 16 16 17 17 18 18 18 19 18 18 18 18 17 17 17 17 19 20 21 22 23 24 24 24 23 23 24 23 23 24 25 27 31 34 36 36 36 37 37 36 36 36 37 37 38 38 37 35 33 29 27 27 28 25 21 18 17 19 22 23 24 25 26 26 27 27 28 29 29 30 31 31 31 31 32 30 29 29 29
13 13 14 15 16 17 17 18 18 18 19 19 20 20 19 19 19 18 17 17 17 18 19 21 22 22 23 23 24 24 24 24 25 25 25 26 27 29 33 36 35 34 35 37 36 34 35 38 40 40 39 39 39 37 34 30 28 28 27 26 23 21 17 16 18 19 20 22 25 26 26 27 28 28 29 30 31 31 30 31 32 31 31 31 30
13 13 14 15 16 17 17 18 18 19 19 19 19 19 18 18 19 18 18 18 18 18 19 20 22 22 23 23 24 24 25 25 25 25 26 28 29 30 33 35 34 34 36 37 36 35 37 39 40 41 41 40 39 38 36 32 30 30 29 27 25 24 21 16 14 14 14 16 20 24 25 25 26 27 28 28 29 29 29 29 31 32 33 32 32
13 14 14 15 16 17 18 18 19 19 19 19 18 18 18 18 19 19 19 19 19 19 20 21 22 23 23 24 24 25 25 26 26 26 27 28 29 31 33 33 33 34 36 37 37 39 40 39 39 41 42 41 40 39 37 35 33 32 31 29 27 25 22 18 12 11 11 11 13 19 23 25 25 25 26 27 27 27 27 27 29 30 31 32 32
14 15 15 16 17 17 17 18 18 18 18 18 18 19 19 19 19 19 20 20 20 20 20 21 22 23 23 24 25 26 26 26 27 27 28 29 31 33 34 34 34 35 36 37 38 40 40 40 40 40 41 42 41 40 38 36 35 34 33 32 29 26 22 17 12 9 10 11 11 13 18 22 24 24 26 28 28 28 27 27 27 29 29 29 30
15 16 16 17 17 17 16 16 17 17 17 18 18 19 20 20 20 20 20 20 21 21 22 22 23 23 24 25 26 27 27 27 27 28 28 30 32 33 34 34 35 36 36 37 39 41 41 41 40 40 41 41 41 40 39 37 36 35 35 34 31 26 22 17 12 9 8 11 13 13 15 19 22 23 25 27 27 27 27 27 27 27 28 28 29
16 16 16 17 17 17 17 17 17 17 18 18 18 19 20 20 20 20 21 21 21 22 23 24 24 24 25 25 26 26 27 27 27 28 29 30 32 34 35 35 36 36 35 36 39 40 40 39 38 39 40 41 41 41 40 38 36 36 35 34 31 27 22 18 13 9 8 9 13 14 15 17 19 21 22 24 25 26 26 27 27 27 27 27 28
Wind_Direction
16 14 11 9 5 5 4 3 3 2 1 1 0 0 360 358 355 351 346 342 338 333 330 328 326 322 319 317 314 309 306 303 300 298 296 296 294 288 283 278 273 269 267 264 262 259 258 258 258 259 260 261 260 258 254 252 250 249 247 242 235 233 235 239 249 261 256 251 248 249 250 243 238 240 244 246 244 241 238 239 242 245 248 252 256
13 10 11 11 10 11 6 2 360 357 355 356 356 356 356 356 354 352 348 346 345 340 334 330 327 323 319 318 318 314 309 305 302 300 298 297 297 294 289 283 276 272 269 266 264 262 259 258 259 259 259 259 260 259 257 254 250 248 248 247 243 240 238 240 249 259 256 248 243 242 240 236 235 236 238 240 241 238 236 237 240 243 248 253 258
11 9 10 12 14 15 12 9 5 1 358 355 353 352 351 351 351 350 347 346 346 344 340 336 331 326 320 318 319 318 315 310 305 301 300 299 298 296 292 288 282 276 272 269 267 264 261 259 258 257 257 259 260 260 258 257 253 249 248 247 246 247 244 242 245 250 252 247 241 238 235 231 232 233 234 236 237 236 236 237 240 244 248 254 261
16 14 14 15 16 15 14 13 10 7 5 1 357 353 349 346 346 345 344 344 344 343 342 339 336 332 326 321 319 319 318 316 311 305 301 300 299 297 294 291 286 281 276 272 270 267 264 262 259 258 258 259 260 260 258 255 253 250 247 245 243 243 242 240 240 242 245 244 238 235 232 228 226 227 228 228 228 230 233 236 241 246 251 257 264
34 26 22 20 19 17 14 13 11 9 7 4 1 357 353 349 346 343 341 340 341 341 341 341 338 335 331 326 321 317 317 318 316 311 306 302 300 298 296 293 290 286 283 277 273 270 267 265 264 262 260 259 260 259 257 255 253 251 247 242 239 238 239 238 237 237 237 235 232 231 227 221 220 221 222 222 221 223 228 234 240 246 252 258 264
50 39 34 27 22 19 16 12 10 8 6 4 1 359 357 353 350 347 342 338 337 337 338 340 340 338 334 330 324 318 315 315 315 316 314 310 306 303 299 297 293 290 287 284 279 274 269 267 266 264 262 261 258 254 251 251 251 251 250 245 241 240 238 234 231 229 230 231 231 229 222 215 213 213 216 218 219 221 225 232 239 246 251 256 262
56 45 40 30 22 19 14 11 8 6 3 2 360 358 356 355 353 350 347 343 337 334 333 334 337 339 337 334 330 323 317 313 315 320 321 319 314 310 306 301 297 293 290 288 285 280 275 271 268 265 264 264 262 257 250 247 245 246 249 249 247 244 238 231 225 222 223 226 227 227 223 215 209 211 215 215 217 223 226 229 237 243 245 251 259
55 40 34 24 16 12 8 5 3 2 1 359 357 356 355 354 353 351 349 347 343 338 333 330 331 334 336 337 335 329 321 317 318 321 322 321 318 314 310 306 301 296 292 289 287 284 281 277 273 269 265 265 267 267 262 255 246 241 242 244 244 241 236 230 225 221 220 220 221 224 223 213 207 210 213 209 210 221 226 227 234 241 242 247 258
29 19 18 9 4 1 357 357 358 358 358 358 357 356 355 353 352 351 349 347 345 341 337 333 331 329 331 334 335 332 328 323 319 318 318 319 320 317 313 309 305 300 295 291 288 285 282 280 277 275 272 269 268 268 268 265 258 249 243 240 238 235 232 228 224 220 218 219 220 219 216 209 205 204 206 208 213 222 226 224 230 241 244 246 254
296 339 353 352 353 352 349 350 354 355 356 357 356 356 355 354 352 350 348 346 344 342 339 338 336 333 330 331 332 332 331 326 322 318 315 316 318 319 316 311 307 303 298 293 289 286 284 281 279 278 278 276 274 271 269 267 263 259 254 246 238 234 230 225 222 218 216 216 216 215 211 208 209 210 213 218 221 223 222 219 223 231 234 238 250
270 309 329 339 342 342 342 345 351 353 354 355 355 355 356 355 353 351 348 346 344 342 341 339 336 335 333 330 329 329 327 326 326 324 321 317 315 316 316 313 309 305 299 295 291 289 288 285 282 281 280 279 278 276 272 268 264 260 257 250 244 238 232 224 219 216 215 217 218 216 213 215 220 221 222 223 222 220 220 219 217 217 216 219 235
250 299 324 336 338 336 339 342 346 349 351 352 353 354 354 354 353 351 348 347 345 343 342 338 335 335 333 329 328 326 325 326 326 326 326 324 319 315 314 312 310 306 301 297 293 291 291 289 287 284 281 279 279 277 273 269 264 260 257 253 248 243 236 229 223 219 217 218 218 216 216 222 227 226 224 225 224 221 221 221 216 213 214 215 218
224 290 328 337 337 338 339 341 344 347 349 350 351 353 353 352 352 351 349 347 346 343 340 336 334 333 332 329 327 324 325 327 326 326 327 327 324 318 314 313 310 307 303 299 295 292 291 291 290 288 284 281 279 276 271 268 263 259 256 253 248 244 241 237 235 232 229 224 219 219 223 226 228 229 232 231 225 217 215 216 217 216 217 220 223
192 274 336 337 339 340 339 341 344 346 347 349 350 351 350 350 350 350 349 347 344 341 338 335 333 331 330 329 326 324 325 327 326 326 327 327 326 322 317 314 312 309 305 301 296 293 292 291 290 289 288 286 281 276 271 266 262 257 253 249 246 243 241 239 237 234 232 229 227 229 232 233 233 237 239 235 228 223 220 218 219 218 219 224 228
159 90 351 345 346 344 341 342 343 344 347 348 350 351 349 348 348 348 347 345 340 337 334 331 329 328 328 329 326 323 325 327 327 327 327 327 329 326 321 317 313 311 308 305 300 295 293 292 290 289 289 287 284 280 274 267 261 256 252 249 247 244 242 240 237 234 233 233 235 237 239 240 241 242 242 239 236 235 233 230 228 224 221 224 226
144 99 5 355 352 348 345 344 343 343 346 347 349 350 348 348 349 346 344 342 339 336 333 328 325 325 327 329 327 323 324 327 328 329 329 328 329 327 323 320 316 313 311 309 306 301 297 294 292 291 289 287 286 283 278 271 263 256 251 249 248 247 245 243 241 239 238 239 241 242 243 244 245 244 243 241 239 236 230 227 226 220 212 213 218
140 125 39 0 352 349 345 343 342 343 345 348 349 349 349 349 348 345 341 339 336 334 330 326 323 323 325 327 327 323 323 326 329 329 330 330 329 327 325 322 319 315 312 311 309 306 301 297 294 293 289 287 287 285 282 276 266 257 252 250 249 248 248 247 244 241 241 242 243 244 244 244 243 243 241 239 237 230 217 208 210 206 199 201 211
131 121 79 11 352 348 341 339 341 342 344 347 348 348 349 347 345 342 338 332 328 327 325 324 322 322 323 325 325 323 322 325 327 327 329 331 330 329 328 325 321 317 314 313 311 309 305 300 297 294 290 289 289 286 282 277 269 261 255 251 248 248 249 248 245 243 241 241 242 241 240 240 239 238 236 234 232 226 216 211 210 203 196 202 207
113 105 81 34 0 346 338 337 339 341 344 346 346 346 347 345 342 340 335 329 324 322 321 320 320 322 323 323 324 324 323 324 325 325 327 329 329 330 329 326 323 320 318 315 313 312 309 305 300 295 292 291 290 288 283 276 269 263 258 253 249 248 249 247 245 244 242 239 237 235 233 234 234 232 232 229 227 225 224 223 216 204 199 203 199
94 90 81 51 15 353 342 338 339 342 343 343 343 345 347 347 345 342 339 335 328 321 317 314 313 317 321 322 323 323 322 323 325 327 327 327 327 327 327 325 324 322 321 318 315 313 312 309 305 300 295 293 291 288 284 278 271 265 259 252 249 251 251 247 245 245 243 239 235 230 228 228 227 226 225 223 221 222 223 222 218 212 206 202 196
90 84 77 51 21 2 351 343 341 343 344 342 342 347 352 350 348 347 344 339 331 322 319 317 313 314 318 321 321 322 322 322 325 329 330 328 326 325 323 322 322 322 321 317 313 310 310 309 307 304 299 294 290 287 282 278 274 269 261 254 252 254 251 246 244 244 242 238 232 225 222 221 219 218 218 217 217 217 215 216 219 219 213 204 197
92 77 62 44 23 9 0 353 349 348 347 347 346 350 355 354 352 352 348 342 335 325 320 320 317 317 320 322 320 320 322 322 323 326 329 330 329 325 321 320 321 321 319 316 311 307 305 303 304 304 300 294 289 286 282 277 272 269 265 260 257 254 249 245 243 240 236 232 225 218 214 212 210 210 212 213 215 214 212 212 216 220 218 212 206
86 69 55 40 22 15 10 4 2 359 355 355 355 355 356 356 356 356 352 345 338 329 322 322 320 319 321 322 320 321 323 323 323 324 327 330 329 325 321 320 320 319 317 314 310 307 303 299 300 302 301 296 290 285 283 280 275 271 269 265 260 254 248 243 238 234 231 225 218 212 209 207 206 205 207 211 213 211 209 211 215 217 216 214 213
75 61 49 34 20 17 15 11 9 5 1 1 0 358 358 356 355 357 354 348 341 330 325 326 324 321 322 321 320 322 324 324 324 326 327 328 326 323 322 320 318 316 312 309 307 305 302 299 298 299 299 297 293 286 279 275 274 272 270 269 263 254 246 238 231 228 224 218 213 210 207 206 205 205 208 211 211 209 209 212 215 214 212 210 212
65 53 42 30 20 17 16 14 11 7 6 5 1 358 357 354 352 353 352 348 342 331 326 328 325 321 322 321 320 321 322 322 323 325 327 326 324 322 321 318 316 313 309 307 306 305 303 301 299 297 296 295 295 292 283 274 269 268 268 268 262 253 244 234 226 221 218 215 212 210 209 207 207 209 212 212 208 205 206 208 208 208 208 208 209
57 48 38 28 20 17 14 11 9 8 7 5 360 358 356 350 346 347 348 345 340 331 325 327 326 322 321 321 320 319 320 321 322 324 326 326 325 323 321 318 316 313 310 308 307 306 305 304 300 297 297 296 294 292 288 279 271 267 268 267 260 249 242 235 224 217 216 215 213 211 211 209 208 209 211 208 203 201 202 201 199 200 202 201 202
49 42 34 25 22 21 16 9 7 6 5 2 359 358 359 352 344 342 342 339 335 330 326 326 326 324 321 320 320 319 319 320 322 325 326 326 325 323 321 318 317 316 313 311 310 308 305 303 301 298 297 297 294 292 289 282 273 267 267 266 258 246 239 235 228 221 218 217 214 212 211 208 206 205 204 201 199 200 201 200 196 195 197 196 195
42 36 28 23 22 21 17 12 7 3 1 359 357 355 355 352 344 339 339 336 327 323 322 322 322 320 317 317 320 320 318 319 321 324 324 323 322 321 319 317 316 314 312 311 310 308 304 302 300 297 296 297 296 295 293 285 275 266 262 262 258 246 237 234 230 225 221 218 213 208 205 203 201 200 198 195 195 197 200 200 196 193 191 190 188
35 29 21 19 18 16 15 13 7 1 358 356 355 354 352 349 342 335 338 340 326 315 312 312 313 315 315 317 320 320 316 315 318 320 319 319 318 317 315 313 312 310 311 312 310 307 304 299 294 291 293 296 296 296 293 286 275 265 258 255 253 246 237 230 226 222 220 216 209 202 198 197 197 196 193 192 194 196 198 198 194 190 188 187 187
25 21 15 13 12 9 6 4 1 359 357 355 353 350 350 351 344 330 327 335 331 315 307 306 310 315 316 315 315 313 310 311 315 318 318 318 318 317 314 313 312 311 314 316 313 307 300 293 286 286 289 292 292 291 291 286 275 265 258 251 245 239 233 227 224 222 218 213 206 200 196 194 192 191 190 190 193 195 196 196 193 188 185 186 188
14 11 7 6 5 360 356 356 356 354 355 357 354 348 343 345 348 337 322 326 327 318 309 306 313 321 319 316 315 313 311 313 317 319 320 321 323 323 320 318 316 317 320 320 314 305 296 286 282 285 289 290 289 287 288 286 276 266 258 249 240 234 227 222 221 220 217 212 206 200 196 195 192 190 191 191 191 191 192 192 192 188 187 189 189
8 4 1 359 357 353 351 353 351 347 350 355 356 349 342 339 341 342 338 332 325 318 313 312 319 324 323 319 317 317 319 321 322 323 325 328 330 329 326 323 322 324 327 325 315 304 296 288 285 289 291 291 292 290 287 285 279 269 259 247 236 231 225 221 218 216 213 211 205 198 196 196 194 191 191 191 190 189 189 190 192 190 189 191 191
5 360 356 354 351 349 349 347 343 343 347 349 349 347 343 338 335 334 335 339 342 335 326 321 320 323 323 321 319 319 321 323 326 329 332 335 335 332 329 327 327 328 331 331 321 309 300 293 291 295 296 293 294 293 290 288 284 274 262 249 238 231 227 224 218 213 211 210 206 200 197 196 194 191 191 191 191 190 190 191 192 191 189 190 190
5 2 358 352 346 345 344 340 338 341 343 340 339 339 337 334 332 331 332 337 342 341 335 328 325 327 327 324 324 326 326 328 332 337 339 339 338 335 332 332 335 339 340 339 332 322 313 303 296 295 296 296 297 295 292 290 289 282 269 256 244 236 231 225 218 213 209 206 205 202 199 195 192 189 189 190 192 192 192 192 192 191 189 189 187
5 5 5 359 350 344 341 338 338 338 335 335 336 335 331 329 330 330 332 334 332 330 329 329 331 334 333 329 329 332 332 334 340 346 348 344 340 340 342 343 345 345 343 339 336 330 324 316 308 301 297 296 298 299 296 292 291 288 277 261 248 239 231 221 215 212 208 204 202 202 199 195 192 190 189 189 192 194 194 193 194 193 192 189 185
5 4 6 2 354 346 341 341 341 336 332 333 333 330 327 326 327 329 331 331 328 325 326 328 331 335 336 335 335 336 337 341 346 352 354 350 347 349 351 347 340 337 335 334 334 332 327 322 319 314 309 303 299 300 299 296 294 292 283 266 250 239 229 219 212 209 206 203 202 200 198 195 192 190 189 190 193 196 197 196 195 195 194 191 186
4 2 1 357 351 347 348 350 348 339 334 333 332 331 329 328 329 333 334 332 330 327 327 330 333 336 337 339 341 340 339 343 348 354 357 357 357 356 352 343 337 335 332 330 331 330 326 323 321 320 318 313 307 302 301 299 298 298 291 273 253 238 229 221 214 209 206 202 200 198 197 195 192 190 190 192 195 197 198 196 195 196 195 192 186
5 4 359 350 347 350 355 357 354 346 338 335 336 337 335 332 335 337 336 334 331 328 329 332 335 335 335 337 340 341 340 343 349 353 355 358 358 352 345 340 337 334 330 328 329 327 323 321 321 319 318 317 314 308 304 301 299 299 298 286 262 242 231 224 216 211 208 204 201 198 196 194 193 193 193 195 197 197 197 195 193 193 193 191 187
6 9 5 357 356 0 3 1 356 350 342 338 341 343 341 339 341 340 337 335 333 330 331 333 333 334 335 336 339 341 342 343 346 347 347 349 349 343 339 338 336 333 331 329 327 325 322 321 322 320 316 314 315 314 311 307 303 300 299 293 272 248 235 227 219 212 209 206 204 201 198 196 196 197 198 199 199 197 195 195 193 191 190 189 189
6 11 12 9 8 9 8 3 357 353 350 346 347 350 350 347 346 343 339 338 335 333 334 334 331 332 334 335 338 340 338 335 336 337 337 339 339 337 336 336 333 330 328 326 325 325 321 318 319 321 317 311 312 316 316 313 309 303 299 295 279 254 238 230 224 219 214 211 209 206 203 201 199 199 200 201 200 198 195 194 194 192 190 189 189
10 14 17 17 15 12 8 3 359 360 1 359 357 359 359 355 352 347 343 340 336 334 334 333 330 330 331 332 336 337 334 327 326 329 332 334 334 332 331 331 331 329 327 324 325 325 321 319 324 328 323 314 312 317 319 318 315 309 302 296 284 262 244 234 228 222 218 215 212 209 207 204 201 199 201 201 200 199 197 195 194 193 191 190 189
16 20 21 19 17 14 7 4 5 7 10 10 9 8 4 0 357 353 347 342 338 335 333 333 332 331 332 333 336 336 333 327 325 327 330 331 331 329 326 326 329 331 330 327 328 329 328 328 333 332 323 314 313 317 319 320 320 316 310 303 290 268 249 238 231 224 219 215 212 209 207 204 201 200 201 201 199 198 197 195 194 193 191 190 187
19 23 24 19 18 17 11 10 13 14 13 12 12 10 7 2 0 358 353 346 341 338 335 335 334 333 334 337 339 337 334 330 328 329 329 329 329 328 325 323 327 333 334 332 336 340 337 331 329 327 322 320 321 321 319 320 322 320 317 312 299 276 254 240 232 226 220 215 212 210 208 205 203 202 202 201 199 197 196 195 194 193 191 188 186
21 25 25 21 21 22 20 20 20 18 15 16 15 14 11 6 3 1 356 350 345 341 337 337 336 335 336 340 342 340 335 332 330 329 328 328 328 327 326 327 331 334 335 339 345 348 343 334 330 331 334 337 339 337 334 332 328 325 324 322 311 288 263 245 236 231 224 217 213 211 209 207 204 203 203 202 198 195 194 194 193 192 189 186 183
24 26 25 23 22 22 23 24 23 20 18 18 17 15 12 8 4 1 356 351 346 343 341 340 340 338 338 340 341 340 336 334 333 330 328 329 328 326 329 333 333 330 333 343 348 346 343 342 343 344 346 349 351 350 348 345 340 335 334 334 330 313 285 261 249 241 231 222 217 213 211 210 207 204 203 202 199 196 195 194 191 189 186 183 181
27 27 26 24 23 22 22 23 22 21 20 18 14 11 8 6 3 359 355 352 348 344 343 344 342 341 340 340 340 339 337 337 337 335 333 333 332 329 332 336 333 329 335 344 345 341 342 348 352 354 354 353 352 352 353 353 351 347 345 346 346 341 324 293 268 252 239 230 223 216 211 210 208 205 203 202 200 198 197 194 190 188 185 183 182
28 30 29 26 24 23 23 23 21 19 18 16 12 7 4 1 360 358 356 353 350 346 346 347 344 342 342 342 341 340 339 339 338 338 337 336 335 332 333 334 332 331 337 342 344 345 349 351 353 355 357 355 353 354 357 359 358 355 353 353 353 353 347 330 297 270 255 243 231 222 215 211 209 207 203 201 200 199 196 193 191 189 186 183 182
29 30 30 29 26 23 22 21 19 17 15 11 8 4 1 359 358 357 355 352 349 347 347 348 346 344 344 344 343 342 341 340 340 340 339 339 338 336 336 334 333 333 337 340 343 348 351 350 350 354 356 357 357 359 360 360 0 359 357 355 353 352 351 346 324 290 274 261 243 231 223 216 210 207 203 200 199 198 196 193 191 189 186 184 182
30 29 29 28 26 23 21 19 16 13 11 8 4 2 0 358 357 356 353 351 349 347 346 347 348 346 345 345 345 344 343 342 342 341 341 340 340 339 339 338 337 337 338 340 342 346 349 350 351 352 354 356 359 1 359 359 1 1 358 355 352 349 348 349 342 311 283 268 254 240 229 221 214 208 203 201 200 197 195 193 191 188 185 183 180
28 28 28 27 25 22 21 19 15 13 11 7 3 1 359 356 355 354 352 350 349 347 346 347 348 348 347 347 346 344 343 342 342 341 341 340 340 341 340 340 340 340 340 340 342 346 349 349 348 348 350 354 358 0 360 360 0 358 356 355 352 349 346 345 343 329 296 271 256 242 230 223 217 210 203 200 198 195 194 192 190 187 184 181 179
24 25 25 25 23 21 19 17 15 12 10 7 3 -0 357 355 354 352 351 350 349 348 347 347 348 349 348 348 346 344 342 342 342 342 341 341 341 341 342 341 341 341 340 339 341 345 346 345 344 344 347 351 356 358 358 358 357 356 355 355 354 352 349 344 337 328 307 276 259 246 233 224 218 212 206 199 195 194 193 191 189 186 184 181 178
Height
782 782 782 781 781 781 781 781 780 780 780 779 778 777 777 775 774 773 772 771 770 769 768 767 766 764 763 762 761 760 759 758 758 757 756 756 755 755 755 755 754 753 752 752 751 752 751 750 750 751 753 752 751 751 751 751 751 751 751 750 749 749 751 751 747 745 745 747 749 751 753 754 755 756 757 757 758 758 760 761 761 762 762 762 762
782 782 781 781 781 780 780 780 780 779 779 778 778 777 776 775 774 773 771 770 769 768 767 766 765 764 762 761 760 759 758 756 756 755 754 754 753 753 753 752 751 750 750 749 748 749 748 747 746 747 749 748 747 748 748 747 747 747 747 748 747 746 748 748 747 744 743 745 747 748 750 751 752 753 754 755 755 756 757 758 759 760 761 761 760
782 782 781 781 781 780 780 780 779 779 778 777 777 776 775 774 773 772 770 769 768 767 766 765 764 763 761 760 758 757 756 755 754 753 753 752 751 750 750 750 749 748 747 746 746 746 745 743 743 744 745 744 743 744 745 744 744 743 743 744 744 743 744 745 745 744 743 743 744 745 747 748 749 750 752 753 754 755 756 757 758 758 759 759 759
782 782 781 781 781 780 780 779 778 778 777 777 776 775 774 773 772 771 770 768 767 766 765 763 762 761 760 758 757 755 754 753 752 751 751 750 749 748 747 747 746 745 745 744 743 743 742 740 739 740 741 740 739 740 740 740 740 740 739 740 739 739 740 741 741 742 741 741 741 742 743 745 746 747 749 750 752 753 754 755 756 756 757 757 757
782 782 782 781 780 780 779 779 778 778 777 776 775 774 774 773 772 771 769 768 766 764 763 762 760 759 758 757 755 754 753 752 751 749 748 748 746 746 745 744 743 742 741 741 740 740 739 737 736 737 738 736 735 736 736 736 736 736 735 735 735 735 736 737 737 738 739 739 739 740 741 742 744 745 746 748 749 750 752 753 753 754 755 755 755
782 782 782 781 781 780 780 779 778 777 777 776 775 774 773 772 771 770 768 767 765 764 762 761 759 758 756 755 754 753 752 751 749 748 747 746 744 743 742 741 740 739 738 737 737 736 735 734 734 734 734 733 731 730 730 731 731 731 731 731 731 732 732 732 733 734 735 736 737 738 739 740 741 742 744 745 746 747 748 750 751 751 752 753 753
780 781 781 781 780 780 779 779 778 777 777 776 775 774 772 771 770 769 768 766 764 763 761 760 758 757 755 753 752 751 750 749 748 747 745 744 742 741 739 738 736 735 734 733 733 733 732 731 730 730 730 729 727 726 725 725 725 725 726 728 729 729 730 730 730 730 731 732 734 735 737 738 739 741 742 743 745 745 746 747 748 749 750 751 751
778 779 779 779 780 779 779 779 778 777 776 775 774 773 772 771 770 768 767 765 764 762 761 759 757 756 754 752 751 750 749 747 746 745 744 742 741 738 737 735 734 732 731 730 729 729 728 727 727 726 726 725 724 724 723 722 721 720 721 723 725 726 727 728 728 728 729 730 731 733 735 736 738 739 740 742 743 743 743 744 745 745 747 749 749
777 778 778 778 778 778 778 778 777 776 776 775 774 772 771 770 769 767 766 764 763 761 760 758 756 754 753 751 750 748 747 746 746 745 743 741 739 737 735 733 731 729 727 726 725 725 725 724 723 723 722 722 721 721 720 720 720 718 718 719 721 722 724 725 726 726 727 728 729 731 733 734 735 737 738 738 738 738 740 741 742 743 745 747 747
777 777 777 777 777 777 777 776 776 775 774 773 773 771 770 769 768 766 765 763 762 760 758 757 755 754 752 750 748 747 746 745 744 743 742 740 738 736 733 731 729 727 725 723 722 721 721 721 720 720 719 718 718 717 717 717 717 716 716 716 717 718 719 720 721 722 723 724 726 728 729 730 731 732 732 733 734 736 737 739 740 742 744 745 745
776 776 776 776 776 775 775 775 774 774 773 772 771 770 769 768 767 765 764 762 761 759 757 756 754 753 751 749 747 746 745 743 742 740 739 738 737 734 731 729 727 725 723 721 719 718 717 717 716 716 716 715 714 713 713 713 713 713 713 712 712 713 713 714 715 716 718 719 721 723 725 726 727 728 729 730 732 734 735 737 738 740 741 742 743
775 775 775 775 775 774 774 774 773 772 771 770 769 768 767 766 765 764 762 761 759 757 756 754 753 752 750 748 747 745 743 742 741 739 737 735 734 733 730 727 725 722 721 719 717 716 714 713 713 712 712 711 711 710 709 709 709 709 709 708 708 708 708 708 709 711 713 714 716 718 719 721 722 723 725 728 729 731 733 735 736 737 738 739 740
774 775 775 775 774 774 773 773 772 771 770 769 768 767 766 764 763 762 761 760 758 756 755 753 752 751 749 747 746 744 742 741 739 738 735 733 732 730 728 726 723 721 718 716 715 713 712 711 709 708 708 708 708 707 706 705 705 705 705 704 704 704 704 705 705 706 707 709 710 712 713 716 717 718 721 723 726 729 731 732 733 734 735 735 735
773 773 774 774 774 773 773 772 772 771 770 769 767 766 765 763 762 761 759 758 757 755 754 752 751 750 749 747 745 742 740 739 738 737 734 732 730 728 726 723 721 718 716 714 712 711 709 708 706 705 704 705 705 704 703 703 702 701 701 700 700 700 701 701 701 702 703 704 705 706 708 711 712 714 717 719 721 724 726 727 729 730 731 732 733
771 772 773 773 773 773 772 771 771 770 769 768 766 765 764 762 761 760 758 757 756 755 753 752 750 749 748 746 744 741 739 738 737 735 733 730 728 725 723 721 718 716 714 712 710 708 706 705 704 702 701 701 701 702 701 700 699 698 697 696 696 696 697 697 698 699 700 701 702 703 705 707 708 711 713 715 717 719 721 723 725 727 729 731 733
770 771 772 772 772 772 771 771 770 769 768 767 765 764 763 761 760 759 757 756 755 754 752 751 750 748 746 745 743 740 738 737 736 734 731 729 727 724 721 719 716 714 711 709 707 705 703 702 701 699 698 698 698 698 699 698 697 695 694 693 693 692 692 693 695 696 697 698 699 700 702 703 705 707 709 711 713 716 719 722 724 726 729 731 731
769 770 770 771 771 771 770 770 769 768 767 765 764 763 762 760 759 758 756 755 753 752 751 749 748 747 745 744 743 740 737 736 735 733 730 728 726 723 720 717 714 712 709 707 704 702 700 699 698 696 695 695 695 695 696 695 694 692 691 690 690 689 688 689 692 693 694 695 696 697 698 700 702 704 705 707 709 712 716 719 721 723 726 728 728
767 768 769 770 770 770 769 769 768 767 766 764 763 762 761 759 759 758 756 754 752 751 750 748 746 746 745 743 742 740 737 735 734 732 730 728 725 722 719 716 713 710 707 705 702 700 697 696 695 694 692 691 692 692 692 692 691 689 688 687 687 685 684 687 690 691 691 692 692 693 695 697 698 700 702 703 705 708 710 713 716 719 722 723 725
766 767 768 768 769 769 768 768 767 766 765 764 762 761 760 759 758 757 756 754 752 750 749 747 744 743 743 742 740 738 736 734 733 731 729 727 725 722 718 715 712 709 706 703 700 698 695 693 691 690 689 688 688 688 688 688 687 686 686 685 683 680 682 685 687 687 688 687 688 689 691 693 695 697 698 700 701 703 705 707 710 713 716 719 721
766 767 767 767 767 767 767 767 766 765 764 763 762 760 759 758 757 756 755 753 752 750 748 747 744 742 741 740 739 737 735 733 731 730 728 726 723 721 718 715 712 708 705 702 698 695 693 691 689 687 686 685 684 683 683 684 683 682 682 681 678 677 680 683 683 683 684 683 684 685 687 689 691 693 695 697 698 699 701 703 705 707 711 714 717
766 766 766 766 766 766 766 765 765 764 763 762 761 760 758 757 756 755 753 752 751 749 748 746 744 741 740 739 737 736 734 732 729 728 726 725 722 720 717 714 712 708 704 701 698 694 691 689 686 685 683 682 681 680 679 679 679 678 677 676 675 676 678 678 678 680 680 680 680 682 683 685 687 689 691 692 693 694 696 698 700 702 705 708 711
766 766 766 766 765 765 765 764 763 763 762 761 759 758 757 756 755 754 753 751 750 749 747 746 743 740 738 737 736 734 733 731 729 726 724 723 720 718 716 713 711 708 704 700 696 693 690 687 684 682 680 679 677 677 676 675 674 673 672 672 673 674 674 674 675 676 676 676 677 678 679 681 682 684 686 688 689 690 692 693 696 698 701 703 706
765 765 765 765 765 764 764 763 762 762 761 759 758 757 756 755 754 753 752 750 749 748 746 745 743 740 737 735 734 733 731 729 727 725 723 721 718 717 715 712 710 707 703 699 695 691 688 685 681 679 677 675 673 672 671 671 670 668 667 668 669 670 670 671 671 672 672 673 674 674 675 676 678 679 681 683 685 687 689 690 692 695 698 701 704
764 764 764 764 764 763 763 762 761 760 759 758 757 756 755 754 753 752 751 750 749 748 746 745 743 740 737 735 732 730 728 726 725 723 721 719 716 714 712 709 707 705 701 697 693 689 685 682 678 676 673 671 669 668 667 666 665 664 664 664 664 665 666 666 666 667 668 669 669 669 670 672 673 675 677 680 682 685 688 689 691 693 696 699 702
763 763 764 764 763 762 762 761 760 759 758 757 756 755 754 753 752 751 751 750 749 748 746 745 743 741 739 735 732 729 727 724 722 720 719 717 714 712 709 706 704 701 697 693 689 686 682 679 675 672 669 667 665 663 661 660 660 659 659 660 660 661 661 661 662 663 663 664 664 666 667 668 670 672 675 678 681 684 686 688 690 692 694 697 700
763 763 763 763 763 762 761 760 759 758 757 756 755 754 753 752 750 750 749 749 748 748 746 745 743 741 739 736 733 729 725 723 721 718 716 714 711 708 705 702 699 696 693 688 685 681 678 675 672 668 665 663 661 659 656 655 655 655 655 655 656 656 656 657 658 658 659 659 661 662 664 666 668 671 673 676 678 681 683 685 687 689 691 693 697
762 763 763 763 762 761 760 759 758 757 756 755 754 753 752 751 750 749 748 747 747 746 745 744 743 741 738 736 732 729 725 722 720 717 715 712 708 705 702 698 694 691 687 684 680 677 674 671 668 664 661 658 656 654 652 651 650 650 650 650 650 651 651 652 653 654 655 656 657 659 661 664 666 668 670 673 675 677 680 682 684 686 688 691 694
762 763 763 763 762 761 760 759 757 756 755 754 753 752 750 750 749 748 747 747 745 745 744 743 742 741 738 735 732 728 724 722 720 717 715 712 708 704 699 695 692 688 684 680 677 674 670 667 664 661 658 655 652 650 649 647 646 645 645 645 646 646 647 648 649 650 651 652 654 656 658 660 662 664 667 669 672 675 677 679 681 683 686 689 692
763 763 763 763 762 761 760 759 757 756 755 753 752 751 750 749 748 747 746 746 745 744 744 743 742 740 738 736 733 729 724 721 719 718 715 712 709 704 699 695 690 686 682 678 675 671 667 664 661 658 655 652 649 647 646 644 643 642 641 641 642 643 643 644 645 646 648 649 650 652 654 656 659 661 664 667 669 672 674 677 679 681 684 687 689
764 764 763 763 762 761 759 758 757 756 754 752 751 750 749 748 748 746 745 745 744 744 743 742 741 740 737 735 734 731 727 722 719 717 713 710 706 702 697 693 689 684 679 676 672 669 665 662 659 655 653 650 647 645 643 642 641 639 638 637 638 639 639 640 641 643 644 646 647 648 651 653 656 659 661 664 667 669 672 674 676 678 681 684 686
764 764 763 763 762 761 760 758 756 755 754 752 750 749 747 747 746 746 745 744 742 742 741 741 741 740 737 734 731 729 726 722 718 714 710 706 702 697 693 689 685 681 677 673 670 666 663 660 656 653 650 648 645 643 641 640 638 636 635 634 634 635 635 635 637 639 641 642 643 645 647 650 652 655 658 661 664 667 670 672 674 675 677 680 683
766 765 764 763 762 761 760 758 756 755 753 751 750 749 747 745 743 743 743 742 740 739 739 740 739 738 736 733 729 726 723 720 716 711 707 703 698 694 689 685 681 677 674 671 667 664 661 658 654 651 648 645 643 641 639 637 636 634 633 631 630 631 632 632 632 634 637 639 641 642 644 646 649 651 655 658 661 665 667 670 671 672 674 677 680
767 766 765 764 763 761 760 758 756 754 752 750 750 749 748 746 742 740 738 738 738 737 738 738 737 735 733 731 729 726 722 718 714 709 705 700 696 691 687 682 679 676 672 669 665 662 659 657 653 650 647 644 641 639 637 635 633 631 630 629 628 627 627 628 629 630 632 635 638 639 640 642 645 648 652 655 658 661 664 667 669 670 672 675 677
768 767 766 765 763 762 760 758 756 754 753 752 751 750 749 747 744 740 737 734 733 733 734 735 734 732 730 728 727 724 721 716 712 707 703 699 694 690 685 680 676 674 671 668 665 661 658 655 652 648 646 642 640 637 634 632 631 629 627 626 625 624 624 625 626 627 628 630 633 635 637 639 642 645 648 652 655 658 661 663 666 667 668 671 673
769 768 766 765 764 762 760 759 757 755 754 753 752 751 749 747 745 742 739 736 733 731 730 730 730 729 727 725 723 721 717 713 709 705 701 697 693 689 684 680 676 673 671 669 666 663 660 656 652 647 644 640 638 635 633 630 628 627 625 624 623 622 622 622 622 623 625 626 629 631 633 636 638 640 644 648 651 654 657 659 662 664 665 667 670
770 768 767 766 764 763 761 759 757 756 754 753 752 751 750 748 745 743 740 738 735 731 729 727 726 725 724 723 720 717 714 710 707 702 699 696 693 690 686 683 680 676 673 671 667 664 660 656 652 647 642 638 636 634 631 629 626 624 623 622 620 619 619 619 619 620 621 623 625 627 630 632 634 637 640 643 647 650 653 656 659 661 663 665 667
771 769 768 767 765 764 762 760 758 756 755 754 753 752 750 748 746 743 740 738 736 733 730 727 723 721 719 718 716 713 710 707 705 701 698 695 693 691 689 687 683 679 675 672 668 664 660 656 652 647 642 638 635 632 629 627 624 622 620 619 618 617 617 617 617 617 618 619 621 623 626 628 631 633 636 640 643 646 650 653 656 658 661 663 665
771 770 769 767 766 764 761 759 757 755 755 754 753 752 750 747 745 743 741 739 737 734 732 729 726 722 719 716 714 711 708 704 701 699 696 694 692 691 690 687 684 681 677 673 670 665 660 656 651 647 643 638 634 631 627 624 622 620 618 616 615 615 615 614 614 615 616 617 618 620 622 625 627 630 633 636 639 642 645 649 652 655 658 661 663
771 770 769 767 765 763 760 758 757 756 756 755 754 752 749 747 745 743 741 739 737 736 733 731 729 726 723 718 715 711 707 703 700 698 695 693 692 691 689 687 684 681 677 673 669 665 661 656 651 647 643 638 634 630 626 623 620 617 616 614 613 612 612 613 613 613 614 615 616 618 619 621 624 627 630 633 635 638 641 644 647 650 653 656 659
771 769 768 766 764 761 760 759 759 758 757 755 753 751 749 747 745 743 742 740 738 736 735 733 730 728 725 722 719 715 711 707 704 701 698 695 693 692 690 688 685 681 677 673 669 665 661 656 651 647 642 637 633 629 625 621 618 615 613 612 611 610 610 610 610 611 611 612 614 615 617 619 621 624 627 629 632 634 637 640 643 646 649 652 655
771 769 767 765 763 762 762 761 760 759 757 754 752 750 748 746 745 743 742 740 739 737 736 734 731 729 726 724 722 719 716 712 708 705 701 698 695 693 691 689 686 682 678 674 669 665 661 655 651 646 641 636 632 628 624 620 617 614 612 610 609 607 607 607 607 607 608 609 610 612 614 616 618 621 623 626 629 631 634 637 640 643 645 648 652
771 769 767 766 765 764 763 762 760 758 756 753 751 749 747 746 745 743 742 741 740 738 736 734 732 729 726 724 722 719 717 713 710 706 702 699 696 694 691 689 686 682 679 674 670 666 661 655 650 645 641 636 632 628 624 620 616 613 610 608 606 605 604 604 604 604 605 606 607 608 610 612 615 617 620 623 626 628 631 634 637 639 642 645 648
770 769 768 767 766 765 763 761 759 756 754 752 750 749 748 746 745 744 743 741 740 739 737 734 732 729 726 723 721 719 716 714 710 707 703 700 697 694 691 688 685 681 677 674 670 665 660 655 650 645 641 636 632 628 624 620 616 613 609 606 604 602 602 601 602 602 602 603 604 605 607 609 611 614 616 619 621 624 627 630 633 636 638 641 644
771 769 768 767 766 764 762 760 757 755 753 752 750 749 748 747 745 744 743 742 740 739 737 734 732 729 726 723 721 719 716 713 710 706 703 700 697 694 691 687 683 679 675 672 668 664 660 655 650 644 639 635 630 626 622 619 615 612 609 605 602 601 599 599 599 599 599 600 601 603 604 606 608 611 613 615 617 620 623 625 628 632 635 638 641
771 769 768 766 765 763 760 758 756 754 752 751 750 748 748 747 745 744 743 742 740 738 736 734 732 729 726 723 721 719 716 713 710 706 703 700 697 693 690 686 682 678 674 670 666 662 659 655 649 644 638 633 628 624 620 617 614 611 609 605 602 600 598 597 597 597 597 598 599 600 602 604 605 607 610 612 614 616 619 621 624 628 631 634 637
771 769 768 766 764 762 760 757 756 754 752 750 749 748 748 747 746 745 743 742 740 738 736 734 731 729 726 723 721 719 716 713 710 706 703 700 696 693 689 686 682 678 674 669 665 662 658 654 649 644 639 633 628 624 620 616 613 610 607 605 602 599 597 596 596 596 596 597 597 598 599 601 603 604 607 609 611 614 616 618 620 623 626 630 633
771 770 768 766 763 762 759 757 755 754 753 751 750 750 749 748 746 745 743 742 740 738 736 733 731 729 726 723 721 718 715 712 709 706 703 699 696 693 689 685 681 677 673 669 665 661 658 653 649 644 639 634 629 624 619 615 612 609 607 604 601 598 596 595 595 595 595 596 596 597 597 599 600 602 604 607 609 611 613 615 618 620 623 625 629
771 769 767 765 763 761 759 758 756 755 754 753 752 751 749 748 746 745 743 741 740 738 735 733 730 728 726 723 720 718 715 712 708 705 702 699 696 692 688 684 681 676 672 668 664 660 656 652 648 644 640 635 630 625 620 616 612 609 606 603 600 598 596 594 594 594 594 595 595 595 596 597 599 600 602 604 607 609 611 613 615 617 620 622 626
772 769 767 765 763 761 760 759 758 757 755 754 752 751 749 748 746 745 743 741 739 737 735 732 730 727 725 722 719 717 714 711 708 704 701 698 695 691 688 684 680 676 671 667 663 659 655 651 647 643 639 635 630 626 621 617 613 609 606 603 601 598 596 594 593 593 593 594 594 595 595 596 598 599 600 602 604 607 609 611 613 615 618 621 623
771 769 767 765 764 762 761 760 759 758 757 755 753 751 750 748 746 745 743 741 739 737 734 732 729 726 724 721 719 716 713 710 707 704 701 698 694 691 687 683 679 675 671 667 663 658 654 650 646 642 639 635 630 626 622 618 614 611 608 605 602 599 596 594 593 592 592 593 594 594 595 596 597 598 600 601 603 605 607 609 611 614 616 618 621
771 769 767 766 765 764 762 761 760 758 757 755 754 752 750 748 746 744 743 740 738 736 733 731 729 726 723 721 719 716 713 710 707 704 701 698 694 690 686 682 678 674 670 666 662 658 654 650 646 642 639 635 630 626 622 618 615 612 609 606 602 599 596 594 593 592 591 592 593 593 593 594 596 597 598 599 601 603 605 607 609 612 614 617 619